Date String (YYYY-MM-DD hh:mm:ss) UTC,Instrument flags,Ambient pressure (hPa),Sample flow (lpm),Bypass flow (lpm),Sample temperature (°C),Ambient temperature (°C),ASC tube jacket temperature (°C),LED temperature (°C),Box temperature (°C),Sample RH (%),Span deviation,Mass concentration (μg/m³),Mass concentration (μg/m³),Mass concentration (μg/m³)
DateTimeUTC,F1_M11,P_M11,Q1_M11,Q2_M11,T1_M11,T2_M11,T3_M11,T4_M11,T5_M11,U1_M11,ZSPAN_M11,X0_M11,X2_M11,X1_M11
2021-12-31 05:00:00,,0808.2,4.99,0.00,21.9,21.2,00.0,31.1,23.5,09.0,0000.0,0001.05,0000.40,0000.22
2021-12-31 05:01:00,,0808.2,5.00,0.00,21.8,21.1,00.0,31.1,23.4,09.1,0000.0,0001.00,0000.38,0000.21
2021-12-31 05:02:00,,0808.4,4.99,0.00,21.8,21.0,00.0,31.0,23.3,09.1,0000.0,0000.95,0000.36,0000.20
2021-12-31 05:03:00,,0808.4,5.00,0.00,21.7,20.9,00.0,31.0,23.2,09.2,0000.0,0000.92,0000.35,0000.19
2021-12-31 05:04:00,,0808.3,5.01,0.00,21.7,20.9,00.0,31.0,23.2,09.2,0000.0,0000.96,0000.35,0000.18
2021-12-31 05:05:00,,0808.3,5.00,0.00,21.7,20.8,00.0,30.9,23.2,09.2,0000.0,0000.97,0000.36,0000.18
2021-12-31 05:06:00,,0808.3,4.99,0.00,21.6,20.8,00.0,30.9,23.2,09.2,0000.0,0000.88,0000.35,0000.18
2021-12-31 05:07:00,,0808.3,5.00,0.00,21.6,21.1,00.0,30.9,23.3,09.2,0000.0,0000.78,0000.35,0000.18
2021-12-31 05:08:00,,0808.3,5.01,0.00,21.8,21.9,00.0,30.9,23.6,09.1,0000.0,0000.70,0000.36,0000.18
2021-12-31 05:09:00,,0808.3,4.99,0.00,21.9,22.8,00.0,31.0,23.9,09.0,0000.0,0000.63,0000.38,0000.20
2021-12-31 05:10:00,,0808.2,5.01,0.00,22.1,22.8,00.0,31.0,24.0,09.0,0000.0,0000.66,0000.38,0000.20
2021-12-31 05:11:00,,0808.2,5.00,0.00,22.1,22.6,00.0,31.0,24.0,09.0,0000.0,0000.73,0000.40,0000.21
2021-12-31 05:12:00,,0808.3,4.99,0.00,22.1,22.3,00.0,31.0,23.9,09.1,0000.0,0000.98,0000.43,0000.22
2021-12-31 05:13:00,,0808.3,5.01,0.00,22.1,22.1,00.0,31.0,23.9,09.1,0000.0,0001.39,0000.43,0000.23
2021-12-31 05:14:00,,0808.3,4.99,0.00,22.1,21.9,00.0,31.0,23.8,09.2,0000.0,0001.44,0000.46,0000.23
2021-12-31 05:15:00,,0808.2,5.01,0.00,22.1,21.9,00.0,31.1,23.8,09.2,0000.0,0001.38,0000.45,0000.23
2021-12-31 05:16:00,,0808.3,5.00,0.00,22.1,21.8,00.0,31.1,23.8,09.2,0000.0,0001.62,0000.43,0000.23
2021-12-31 05:17:00,,0808.3,5.01,0.00,22.1,21.8,00.0,31.1,23.8,09.5,0000.0,0001.67,0000.43,0000.23
2021-12-31 05:18:00,,0808.4,4.99,0.00,22.1,21.7,00.0,31.1,23.8,09.5,0000.0,0001.66,0000.41,0000.23
2021-12-31 05:19:00,,0808.3,5.00,0.00,22.1,21.7,00.0,31.1,23.8,09.7,0000.0,0001.77,0000.42,0000.22
2021-12-31 05:20:00,,0808.2,5.00,0.00,22.1,21.7,00.0,31.1,23.8,10.1,0000.0,0001.76,0000.39,0000.21
2021-12-31 05:21:00,,0808.0,5.00,0.00,22.1,21.6,00.0,31.1,23.8,10.2,0000.0,0001.67,0000.34,0000.19
2021-12-31 05:22:00,,0808.1,5.01,0.00,22.1,21.5,00.0,31.1,23.8,10.3,0000.0,0001.64,0000.33,0000.18
2021-12-31 05:23:00,,0808.1,5.00,0.00,22.0,21.4,00.0,31.1,23.7,10.1,0000.0,0001.35,0000.30,0000.17
2021-12-31 05:24:00,,0808.0,5.00,0.00,22.0,21.4,00.0,31.1,23.5,10.0,0000.0,0001.25,0000.29,0000.16
2021-12-31 05:25:00,,0808.0,5.00,0.00,21.9,21.2,00.0,31.1,23.5,09.5,0000.0,0002.49,0000.29,0000.16
2021-12-31 05:26:00,,0808.3,4.99,0.00,21.9,21.1,00.0,31.0,23.5,09.3,0000.0,0002.70,0000.32,0000.16
2021-12-31 05:27:00,,0808.2,5.01,0.00,21.9,21.1,00.0,31.0,23.4,09.1,0000.0,0002.61,0000.34,0000.18
2021-12-31 05:28:00,,0807.9,5.00,0.00,21.8,21.1,00.0,31.0,23.4,09.2,0000.0,0002.73,0000.39,0000.20
2021-12-31 05:29:00,,0808.2,5.00,0.00,21.8,21.0,00.0,31.0,23.4,09.2,0000.0,0003.47,0000.40,0000.22
2021-12-31 05:30:00,,0808.1,4.99,0.00,21.8,21.0,00.0,31.0,23.4,08.9,0000.0,0003.84,0000.43,0000.26
2021-12-31 05:31:00,,0807.7,5.00,0.00,21.8,21.0,00.0,31.0,23.4,09.0,0000.0,0003.86,0000.48,0000.30
2021-12-31 05:32:00,,0807.9,5.00,0.00,21.8,21.1,00.0,30.9,23.4,08.9,0000.0,0005.62,0000.57,0000.34
2021-12-31 05:33:00,,0808.1,5.00,0.00,21.8,21.1,00.0,30.9,23.4,08.9,0000.0,0006.03,0000.68,0000.38
2021-12-31 05:34:00,,0807.9,4.99,0.00,21.8,21.1,00.0,30.9,23.4,09.3,0000.0,0006.09,0000.73,0000.43
2021-12-31 05:35:00,,0807.8,5.00,0.00,21.7,21.0,00.0,30.9,23.3,09.7,0000.0,0006.90,0000.72,0000.44
2021-12-31 05:36:00,,0807.9,5.01,0.00,21.7,21.0,00.0,30.9,23.3,09.8,0000.0,0006.36,0000.72,0000.45
2021-12-31 05:37:00,,0807.8,4.98,0.00,21.7,21.3,00.0,30.9,23.4,10.1,0000.0,0006.26,0000.72,0000.44
2021-12-31 05:38:00,,0808.0,5.01,0.00,21.9,22.1,00.0,30.9,23.8,10.0,0000.0,0006.09,0000.71,0000.43
2021-12-31 05:39:00,,0808.2,5.00,0.00,22.1,22.9,00.0,31.0,24.0,09.6,0000.0,0006.06,0000.72,0000.42
2021-12-31 05:40:00,,0807.8,5.00,0.00,22.1,22.8,00.0,31.0,24.1,09.4,0000.0,0005.39,0000.72,0000.42
2021-12-31 05:41:00,,0807.8,5.01,0.00,22.2,22.5,00.0,31.0,24.1,09.5,0000.0,0005.00,0000.70,0000.40
2021-12-31 05:42:00,,0807.8,4.99,0.00,22.2,22.3,00.0,31.0,24.0,09.4,0000.0,0005.07,0000.67,0000.38
2021-12-31 05:43:00,,0807.8,5.01,0.00,22.2,22.2,00.0,31.1,24.0,09.3,0000.0,0003.29,0000.63,0000.35
2021-12-31 05:44:00,,0808.1,4.99,0.00,22.2,22.0,00.0,31.1,23.9,09.1,0000.0,0003.13,0000.60,0000.35
2021-12-31 05:45:00,,0807.7,4.99,0.00,22.2,22.0,00.0,31.1,23.9,09.0,0000.0,0003.12,0000.61,0000.35
2021-12-31 05:46:00,,0807.8,5.01,0.00,22.1,21.9,00.0,31.1,23.9,09.1,0000.0,0001.95,0000.66,0000.39
2021-12-31 05:47:00,,0808.0,4.99,0.00,22.1,21.7,00.0,31.1,23.8,09.2,0000.0,0001.52,0000.70,0000.42
2021-12-31 05:48:00,,0807.9,5.01,0.00,22.1,21.5,00.0,31.1,23.7,09.1,0000.0,0002.39,0000.80,0000.47
2021-12-31 05:49:00,,0807.9,4.98,0.00,22.0,21.4,00.0,31.1,23.6,09.2,0000.0,0002.83,0000.87,0000.52
2021-12-31 05:50:00,,0808.1,5.02,0.00,22.0,21.3,00.0,31.1,23.6,09.1,0000.0,0002.93,0000.89,0000.56
2021-12-31 05:51:00,,0808.2,5.01,0.00,21.9,21.3,00.0,31.1,23.5,09.1,0000.0,0003.36,0000.96,0000.60
2021-12-31 05:52:00,,0808.1,5.00,0.00,21.9,21.2,00.0,31.0,23.5,09.1,0000.0,0003.89,0001.04,0000.64
2021-12-31 05:53:00,,0808.1,5.01,0.00,21.8,21.1,00.0,31.0,23.4,09.1,0000.0,0004.00,0001.09,0000.68
2021-12-31 05:54:00,,0808.0,5.00,0.00,21.8,21.0,00.0,31.0,23.3,09.2,0000.0,0004.59,0001.11,0000.71
2021-12-31 05:55:00,,0807.8,5.00,0.00,21.7,20.9,00.0,31.0,23.2,09.4,0000.0,0004.72,0001.13,0000.73
2021-12-31 05:56:00,,0808.1,5.01,0.00,21.7,20.8,00.0,31.0,23.1,09.5,0000.0,0004.75,0001.16,0000.74
2021-12-31 05:57:00,,0808.1,5.00,0.00,21.6,20.7,00.0,30.9,23.1,09.6,0000.0,0004.79,0001.18,0000.74
2021-12-31 05:58:00,,0807.8,4.99,0.00,21.6,20.7,00.0,30.9,23.1,09.6,0000.0,0004.82,0001.19,0000.75
2021-12-31 05:59:00,,0807.7,5.00,0.00,21.6,20.9,00.0,30.9,23.2,09.6,0000.0,0004.22,0001.17,0000.75
